Weather History for KY19 - September, 2012

Change the Weather History Date:

Saturday, September 29, 2012

  Actual Average (KBIS) Record (KBIS)
Temperature  
Mean Temperature 66 °F 52 °F  
Max Temperature 84 °F 66 °F 90 °F (2007)
Min Temperature 48 °F 39 °F 20 °F (1945)
Degree Days  
Heating Degree Days 0 13  
Month to date heating degree days 217  
Since 1 July heating degree days 272  
Cooling Degree Days 1 0  
Month to date cooling degree days 37  
Year to date cooling degree days 518  
Growing Degree Days 16 (Base 50)    
Moisture  
Dew Point 34 °F    
Average Humidity 32    
Maximum Humidity 47    
Minimum Humidity 16    
Precipitation  
Precipitation 0.00 in 0.05 in 0.91 in (1965)
Month to date precipitation 1.55  
Year to date precipitation 15.36  
Snow  
Snow 0.00 in 0.00 in 0.00 in (2002)
Month to date snowfall 0.2  
Since 1 July snowfall 0.2  
Since 1 September snowfall 0.2  
Snow Depth -    
Sea Level Pressure  
Sea Level Pressure 30.00 in    
Wind  
Wind Speed 9 mph (SSE)    
Max Wind Speed 20 mph    
Max Gust Speed 29 mph    
Visibility 10 miles    
Events      
T = Trace of Precipitation, MM = Missing Value Source: NWS Daily Summary

Daily Weather History Graph

Daily Weather History Graph

Search for Another Location

Airport or City:

Trip Planner

Search our weather history database for the weather conditions in past years. The results will help you decide how hot, cold, wet, or windy it might be!

Date:

Astronomy

Sep. 29, 2012 Rise Set
Actual Time 7:40 AM CDT 7:26 PM CDT
Civil Twilight 7:10 AM CDT 7:56 PM CDT
Nautical Twilight 6:34 AM CDT 8:31 PM CDT
Astronomical Twilight 5:58 AM CDT 9:07 PM CDT
Moon 6:56 PM CDT (9/29) 7:14 AM CDT (9/29)
Length of Visible Light 12h 46m
Length of Day
11h 45m
Full, 100% of the Moon is Illuminated
Sep 29
Full
Sep 29
Full
Oct 8
Last Quarter
Oct 15
New
Oct 21
First Quarter

Hourly Weather History & Observations

Time (CDT) Temp. Dew Point Humidity Pressure Visibility Wind Dir Wind Speed Gust Speed Precip Events Conditions
12:15 AM 57.2 °F 33.8 °F 41% 30.09 in 10.0 mi SSE 9.2 mph - N/A   Mostly Cloudy
12:35 AM 57.2 °F 33.8 °F 41% 30.08 in 10.0 mi South 8.1 mph - N/A   Mostly Cloudy
12:55 AM 55.4 °F 33.8 °F 44% 30.08 in 10.0 mi SSE 8.1 mph - N/A   Mostly Cloudy
1:15 AM 57.2 °F 32.0 °F 38% 30.08 in 10.0 mi SSE 9.2 mph - N/A   Scattered Clouds
1:35 AM 57.2 °F 32.0 °F 38% 30.08 in 10.0 mi South 9.2 mph - N/A   Partly Cloudy
1:55 AM 57.2 °F 32.0 °F 38% 30.08 in 10.0 mi South 9.2 mph - N/A   Mostly Cloudy
2:15 AM 55.4 °F 32.0 °F 41% 30.08 in 10.0 mi South 6.9 mph - N/A   Partly Cloudy
2:35 AM 55.4 °F 30.2 °F 38% 30.08 in 10.0 mi SSE 8.1 mph - N/A   Clear
2:55 AM 55.4 °F 28.4 °F 36% 30.07 in 10.0 mi SSE 9.2 mph - N/A   Partly Cloudy
3:15 AM 55.4 °F 28.4 °F 36% 30.07 in 10.0 mi SSE 8.1 mph - N/A   Partly Cloudy
3:35 AM 55.4 °F 28.4 °F 36% 30.07 in 10.0 mi SSE 8.1 mph - N/A   Clear
3:55 AM 53.6 °F 28.4 °F 38% 30.06 in 10.0 mi SE 9.2 mph - N/A   Clear
4:15 AM 53.6 °F 28.4 °F 38% 30.06 in 10.0 mi SE 8.1 mph - N/A   Clear
4:35 AM 53.6 °F 28.4 °F 38% 30.05 in 10.0 mi SE 6.9 mph - N/A   Clear
4:55 AM 53.6 °F 28.4 °F 38% 30.05 in 10.0 mi SE 8.1 mph - N/A   Clear
5:15 AM 53.6 °F 28.4 °F 38% 30.05 in 10.0 mi SE 6.9 mph - N/A   Clear
5:35 AM 53.6 °F 28.4 °F 38% 30.04 in 10.0 mi SE 6.9 mph - N/A   Clear
5:55 AM 50.0 °F 28.4 °F 43% 30.04 in 10.0 mi SE 6.9 mph - N/A   Clear
6:15 AM 50.0 °F 28.4 °F 43% 30.04 in 10.0 mi ESE 6.9 mph - N/A   Clear
6:35 AM 50.0 °F 28.4 °F 43% 30.04 in 10.0 mi SE 5.8 mph - N/A   Clear
6:55 AM 48.2 °F 28.4 °F 46% 30.04 in 10.0 mi SE 5.8 mph - N/A   Clear
7:15 AM 48.2 °F 28.4 °F 46% 30.04 in 10.0 mi SE 8.1 mph - N/A   Clear
7:35 AM 48.2 °F 28.4 °F 46% 30.04 in 10.0 mi SE 6.9 mph - N/A   Clear
7:55 AM 50.0 °F 28.4 °F 43% 30.04 in 10.0 mi SE 5.8 mph - N/A   Clear
8:15 AM 48.2 °F 28.4 °F 46% 30.04 in 10.0 mi ESE 8.1 mph - N/A   Clear
8:35 AM 50.0 °F 30.2 °F 47% 30.04 in 10.0 mi SE 6.9 mph - N/A   Clear
8:55 AM 53.6 °F 32.0 °F 44% 30.05 in 10.0 mi SE 6.9 mph - N/A   Clear
9:15 AM 55.4 °F 30.2 °F 38% 30.05 in 10.0 mi ESE 5.8 mph - N/A   Clear
9:35 AM 57.2 °F 30.2 °F 36% 30.05 in 10.0 mi SE 5.8 mph - N/A   Clear
9:55 AM 59.0 °F 32.0 °F 36% 30.05 in 10.0 mi SE 5.8 mph - N/A   Clear
10:15 AM 60.8 °F 32.0 °F 34% 30.05 in 10.0 mi SE 5.8 mph - N/A   Clear
10:35 AM 64.4 °F 32.0 °F 30% 30.04 in 10.0 mi SE 6.9 mph - N/A   Clear
10:55 AM 68.0 °F 35.6 °F 30% 30.04 in 10.0 mi SE 9.2 mph - N/A   Clear
11:15 AM 71.6 °F 39.2 °F 31% 30.03 in 10.0 mi SSE 10.4 mph - N/A   Clear
11:35 AM 73.4 °F 39.2 °F 29% 30.03 in 10.0 mi SSE 11.5 mph 20.7 mph N/A   Clear
11:55 AM 75.2 °F 39.2 °F 27% 30.03 in 10.0 mi South 11.5 mph 16.1 mph N/A   Clear
12:15 PM 77.0 °F 37.4 °F 24% 30.02 in 10.0 mi South 13.8 mph 25.3 mph N/A   Clear
12:35 PM 78.8 °F 39.2 °F 24% 30.01 in 10.0 mi South 16.1 mph 24.2 mph N/A   Clear
12:55 PM 80.6 °F 37.4 °F 21% 30.00 in 10.0 mi South 17.3 mph 25.3 mph N/A   Clear
1:15 PM 82.4 °F 37.4 °F 20% 29.99 in 10.0 mi South 15.0 mph 27.6 mph N/A   Clear
1:35 PM 82.4 °F 37.4 °F 20% 29.99 in 10.0 mi SSW 19.6 mph 27.6 mph N/A   Clear
1:55 PM 82.4 °F 35.6 °F 19% 29.98 in 10.0 mi South 18.4 mph 26.5 mph N/A   Clear
2:15 PM 82.4 °F 35.6 °F 19% 29.97 in 10.0 mi SSW 18.4 mph 28.8 mph N/A   Clear
2:35 PM 82.4 °F 35.6 °F 19% 29.97 in 10.0 mi South 16.1 mph 26.5 mph N/A   Clear
2:55 PM 84.2 °F 35.6 °F 18% 29.96 in 10.0 mi South 19.6 mph 27.6 mph N/A   Clear
3:15 PM 84.2 °F 35.6 °F 18% 29.96 in 10.0 mi South 12.7 mph 25.3 mph N/A   Clear
3:35 PM 84.2 °F 35.6 °F 18% 29.96 in 10.0 mi SSW 16.1 mph 23.0 mph N/A   Clear
3:55 PM 84.2 °F 35.6 °F 18% 29.95 in 10.0 mi South 16.1 mph 23.0 mph N/A   Clear
4:15 PM 84.2 °F 33.8 °F 16% 29.95 in 10.0 mi South 13.8 mph 21.9 mph N/A   Clear
4:35 PM 84.2 °F 33.8 °F 16% 29.94 in 10.0 mi South 12.7 mph 19.6 mph N/A   Clear
4:55 PM 82.4 °F 35.6 °F 19% 29.94 in 10.0 mi South 17.3 mph 21.9 mph N/A   Clear
5:15 PM 82.4 °F 33.8 °F 17% 29.94 in 10.0 mi South 13.8 mph 18.4 mph N/A   Clear
5:35 PM 82.4 °F 33.8 °F 17% 29.94 in 10.0 mi South 10.4 mph - N/A   Clear
5:55 PM 82.4 °F 35.6 °F 19% 29.94 in 10.0 mi South 10.4 mph 16.1 mph N/A   Clear
6:15 PM 82.4 °F 35.6 °F 19% 29.94 in 10.0 mi South 8.1 mph - N/A   Clear
6:35 PM 80.6 °F 37.4 °F 21% 29.93 in 10.0 mi South 6.9 mph - N/A   Clear
6:55 PM 77.0 °F 37.4 °F 24% 29.93 in 10.0 mi SSE 8.1 mph - N/A   Clear
7:15 PM 73.4 °F 37.4 °F 27% 29.93 in 10.0 mi SSE 8.1 mph - N/A   Clear
7:35 PM 69.8 °F 37.4 °F 31% 29.94 in 9.0 mi SE 6.9 mph - N/A   Clear
7:55 PM 68.0 °F 37.4 °F 33% 29.94 in 10.0 mi SSE 8.1 mph - N/A   Clear
8:15 PM 69.8 °F 37.4 °F 31% 29.94 in 10.0 mi SSE 8.1 mph - N/A   Clear
8:35 PM 68.0 °F 37.4 °F 33% 29.94 in 10.0 mi South 9.2 mph - N/A   Clear
8:55 PM 69.8 °F 35.6 °F 28% 29.94 in 10.0 mi SSE 10.4 mph - N/A   Clear
9:15 PM 68.0 °F 35.6 °F 30% 29.94 in 10.0 mi SSE 9.2 mph - N/A   Clear
9:35 PM 68.0 °F 35.6 °F 30% 29.94 in 10.0 mi SSE 8.1 mph - N/A   Partly Cloudy
9:55 PM 66.2 °F 35.6 °F 32% 29.94 in 10.0 mi South 6.9 mph - N/A   Clear
10:15 PM 68.0 °F 35.6 °F 30% 29.94 in 10.0 mi South 9.2 mph - N/A   Clear
10:35 PM 66.2 °F 35.6 °F 32% 29.95 in 10.0 mi South 8.1 mph - N/A   Clear
10:55 PM 64.4 °F 35.6 °F 34% 29.95 in 10.0 mi South 9.2 mph - N/A   Clear
11:15 PM 64.4 °F 35.6 °F 34% 29.95 in 10.0 mi South 8.1 mph - N/A   Clear
11:35 PM 62.6 °F 35.6 °F 37% 29.96 in 10.0 mi South 6.9 mph - N/A   Clear
11:55 PM 62.6 °F 37.4 °F 39% 29.96 in 10.0 mi South 6.9 mph - N/A   Clear